Preview of NWS' New Version of Forecast
This preview is not operational and should not be used for support decisions.

Regional Weather Roundup (RWR)

Issued by National Weather Service (NWS)

                            
000
ASCA42 TJSJ 190010
RWRPR 
PUERTO RICO/U.S. VIRGIN ISLANDS HOURLY WEATHER ROUNDUP
NATIONAL WEATHER SERVICE SAN JUAN PR
800 PM AST TUE JUN 18 2019

PRZ001>002-007>008-010-190100-
PUERTO RICO
  
CITY           SKY/WX    TMP DP  RH WIND       PRES   REMARKS
SAN JUAN LMM   PTCLDY    82  75  78 E15       30.08R                  
AGUADILLA      PTCLDY    81  75  83 E15G22    30.09R                  
CEIBA          CLOUDY    82  73  74 E13       30.09R                  
$$

VIZ001>002-190100-
U.S. VIRGIN ISLANDS
  
CITY           SKY/WX    TMP DP  RH WIND       PRES   REMARKS
CHARLOTTE AMA  PTCLDY    82  73  74 E12       30.07R                  
CHRISTIANSTED  PTCLDY    81  73  78 NE14      30.08R                  
$$

HOURLY WEATHER ROUNDUP FOR THE NEWS MEDIA
  
CITY           SKY/WX    TMP DP  RH WIND       PRES   REMARKS
ORLANDO        LGT RAIN  80  75  84 SW7       30.00S                  
NEW YORK       RAIN      68  68 100 VRB3      29.86S                  
NEWARK         CLOUDY    71  70  96 S3        29.85S FOG              
CHICAGO        PTSUNNY   77  55  46 E7        29.85S                  
HARTFORD       CLOUDY    65  63  93 E3        29.90R                  
BOSTON         CLOUDY    64  61  90 N6        29.91  FOG              
DALLAS         MOSUNNY   92  65  40 S8        29.81F HX  94           
PHILADELPHIA   MOCLDY    78  65  63 W14       29.86R                  
LOS ANGELES    MOSUNNY   68  58  70 W13       29.94F                  
WASHINGTON DC  MOCLDY    72  69  90 S6        29.91R